Home   Weather   Bourges   Past weeks

Flag for France Past Weather in Bourges, Centre-Val de Loire, France — Yesterday and Last 2 Weeks

Now
38 °F

Overcast.


Feels Like: 38 °F
Forecast: 33 / 53 °F
Wind: 2 mph from North

Location: Bourges

Current Time: Apr 26, 2017 at 4:33:00 am

Latest Report: Apr 26, 2017 at 3:00 am


Visibility: 8 mi

Pressure: 29.90 "Hg

Humidity: 91%

Dew Point: 36 °F

Location of BourgesLocation

Past Weather in Bourges — Graph

°F

Bourges Temperature Yesterday

Maximum temperature yesterday: 53 °F (at 11:00 am)
Minimum temperature yesterday: 38 °F (at 11:00 pm)
Average temperature yesterday: 45 °F

High & Low Weather Summary for the Past Weeks

 TemperatureHumidityPressure
High68 °F (Apr 24, 6:00 pm)91% (Apr 13, 7:00 am)30.57 "Hg (Apr 13, 7:00 am)
Low31 °F (Apr 19, 7:00 am)22% (Apr 21, 3:00 pm)29.84 "Hg (Apr 25, 5:00 pm)
Average50 °F58%30.22 "Hg
* Reported Apr 11 2:00 am — Apr 26 2:00 am, Bourges, Weather by CustomWeather, © 2017

Note: Actual official high and low records may vary slightly from our data, if they occured in-between our weather recording intervals... More about our weather records

Advertising

Bourges Weather History for the Previous 24 Hours

Scroll right to see more
 ConditionsComfort  
Time TempWeatherWind HumidityBarometerVisibility
2:00 am
Wed, Apr 26
38 °FOvercast.1 mph89%29.91 "Hg10 mi
1:00 am38 °FOvercast.2 mph88%29.90 "Hg12 mi
12:00 am38 °FRain. Overcast.2 mph88%29.89 "Hg12 mi
11:00 pm
Tue, Apr 25
38 °FLight rain. Overcast.5 mph85%29.89 "Hg12 mi
10:00 pm38 °FLight rain. Low clouds.6 mph88%29.88 "Hg12 mi
9:00 pm39 °FLight rain. Overcast.8 mph88%29.87 "Hg7 mi
8:00 pm40 °FLight rain. Low clouds.9 mph89%29.85 "Hg12 mi
7:00 pm41 °FHeavy rain. Low clouds.9 mph88%29.85 "Hg12 mi
6:00 pm42 °FLight rain. Overcast.7 mph89%29.84 "Hg9 mi
5:00 pm43 °FLight rain. Overcast.9 mph83%29.84 "Hg12 mi
4:00 pm45 °FLight rain. Overcast.8 mph83%29.85 "Hg12 mi
3:00 pm46 °FLight rain. Overcast.8 mph83%29.85 "Hg12 mi
2:00 pm47 °FLight rain. Overcast.12 mph86%29.85 "Hg11 mi
1:00 pm50 °FLight rain. Overcast.10 mph81%29.85 "Hg11 mi
12:00 pm52 °FOvercast.7 mph70%29.86 "Hg12 mi
11:00 am53 °FOvercast.3 mph67%29.86 "Hg16 mi
10:00 am51 °FOvercast.2 mph68%29.86 "Hg16 mi
9:00 am46 °FOvercast.No wind76%29.87 "Hg16 mi
8:00 am42 °FOvercast.2 mph78%29.86 "Hg16 mi
7:00 am41 °FOvercast.6 mph80%29.86 "Hg16 mi
6:00 am42 °FOvercast.3 mph76%29.87 "Hg16 mi
5:00 am42 °FOvercast.3 mph75%29.88 "Hg12 mi
4:00 am43 °FQuite cool.2 mph72%29.87 "Hg12 mi
Weather by CustomWeather, © 2017

See weather overviewHow to use our weather pages